Showing default

NUSAT-43 (R DIENG-KUNTZ), 56968

Orbit data source: Space-Track

NUSAT-43 (R DIENG-KUNTZ), 56968 is a payload satellite owned by URUGUS S.A. (AR) in SSO that was launched on Mon, 12 Jun 2023 UTC via an FALCON 9 launch vehicle from the Air Force Western Test Range (AFWTR). Payload-class satellites include a variety of spacecraft equipped with specific instruments for various scientific and technological missions. These include communications satellites like Starlink; space stations such as the ISS; scientific satellites like the Hubble; Earth observation satellites from companies like Planet Labs, Umbra, and HawkEye 360; GPS; miniature CubeSats for education and research; and military/defense satellites.

Loading next visibility...
Identifier
56968, 2023-084AN
Orbit
SSO
Last TLE update
18 hours ago
Origin
Manufacturer
URUGUS S.A.
Mission
Operational Commercial Imaging
Bus & Motor
NEWSAT V, Unknown motor
Mass
41.5 kg wet, 38.5 kg dry
Launch date (UTC)
2023-06-12 (2 years ago)
Launch vehicle
FALCON 9
Launch site
Air Force Western Test Range (AFWTR)
Object type
Payload
Rocket body
Debris
Shape & HBR
Box, 0.4 m
Radar Cross Section
0.542 m², Medium (>0.1 m² and < 1m²)

Expand to show TLE details & history

TLE from 18 hours ago
0 NUSAT-43 (R DIENG-KUNTZ)
1 56968U 23084AN  25199.90789024  .00021296  00000-0  44715-3 0  9990
2 56968  97.4219 327.5544 0006832  12.3291 347.8123 15.45357868117206
Epoch: 2025-07-18T21:47Z
TLE epoch observation values (Epoch: 2025-07-18T21:47:21.716Z)
Latitude
-0.00011°
Longitude
63.76132°
Altitude
428.903 km
Speed
7.657 km/s
True Right ascension
21h 50m 13s
True Declination
0° 00' 00"
Sunlit
Object was in full shadow at epoch
Visualization orbit readout
Latitude
5.56947°
Longitude
-114.75466°
Altitude
437.296 km
Speed
7.647 km/s
Apparent Right ascension
12h 30m 10s
Apparent Declination
-23° 39' 40"
Sunlit
Object is in daylight
Visualization observer readout
Local Sidereal Time
04:28:23
Azimuth
90.726° ESE
Elevation
-37.841°
Doppler factor
1
Orbital elements
Apogee altitude
431.909 km
Perigee altitude
422.61 km
Semi-major axis
6,805.397 km
Eccentricity
0.00068
Inclination
97.4219°
RAAN
327.5544°
Arg. of periapsis
12.3291°
True anomaly
347.79576°
Mean anomaly
347.8123°
Eccentric anomaly
347.80403°
Mean motion
3.86601 °/min
Orbital period
93.12 mins
BSTAR
0.00044715
Loading maneuver chart data...
Loading SW <> Apogee altitude chart data...
Loading historical data...
Loading historical data...
Loading historical data...
Loading historical data...
Loading historical data...
Loading historical data...
Loading historical data...
|